Location: Alincthun
(50.7310°N, 1.8022°E)
Time: 00:52:46
(UTC+00:00)

NOSS 2-1 (E) - Pass Details

Date: 17 February 2020
Orbit: 450 x 1753 km, 63.3° (Epoch: 29 March)

Event Time Altitude Azimuth Distance (km) Brightness Sun altitude
Exits shadow 05:02:07 65° 243° (WSW) 526 2.9 -19.6°
Maximum altitude 05:02:33 82° 312° (NW) 491 2.9 -19.5°
Drops below altitude 10° 05:06:29 10° 43° (NE) 1,826 6.6 -18.9°
Sets 05:08:57 0° 44° (NE) 2,870 7.7 -18.5°
